Weather History for Cold Bay, AK

Change the Weather History Date:

Sunday, December 9, 2012

  Actual Average Record
Temperature  
Mean Temperature 37 °F 32 °F  
Max Temperature 41 °F 36 °F 48 °F (2013)
Min Temperature 33 °F 28 °F 4 °F (1975)
Degree Days  
Heating Degree Days 28 33  
Month to date heating degree days 350 294  
Since 1 July heating degree days 3639 3320  
Cooling Degree Days 0    
Month to date cooling degree days 0  
Year to date cooling degree days 0  
Moisture  
Dew Point 31 °F    
Average Humidity 0    
Maximum Humidity 0    
Minimum Humidity 0    
Precipitation  
Precipitation 0.24 in 0.16 in 1.10 in (2007)
Month to date precipitation 1.66 1.46  
Year to date precipitation 42.05 38.67  
Snow  
Snow T in 0.40 in 5.40 in (1997)
Month to date snowfall 1.0 3.7  
Since 1 July snowfall 10.0 16.3  
Snow Depth T in    
Sea Level Pressure  
Sea Level Pressure 29.25 in    
Wind  
Wind Speed 20 mph (SW)    
Max Wind Speed 32 mph    
Max Gust Speed 38 mph    
Visibility 8 miles    
Events Rain , Snow    
T = Trace of Precipitation, MM = Missing Value Source: NWS Daily Summary

Daily Weather History Graph

Daily Weather History Graph

Search for Another Location

Airport:

Trip Planner

Search our weather history database for the weather conditions in past years. The results will help you decide how hot, cold, wet, or windy it might be!

Date:

Astronomy

Dec. 09, 2012 Rise Set
Actual Time 10:05 AM AKST 5:21 PM AKST
Civil Twilight 9:20 AM AKST 6:06 PM AKST
Nautical Twilight 8:32 AM AKST 6:54 PM AKST
Astronomical Twilight 7:48 AM AKST 7:38 PM AKST
Moon 5:21 AM AKST (12/9) 3:03 PM AKST (12/9)
Length of Visible Light 8h 46m
Length of Day
7h 15m
Waning Crescent, 17% of the Moon is Illuminated
Dec 9
Waning Crescent
Dec 12
New
Dec 19
First Quarter
Dec 28
Full
Jan 4
Last Quarter

Hourly Weather History & Observations

Time (AKST) Temp. Windchill Dew Point Humidity Pressure Visibility Wind Dir Wind Speed Gust Speed Precip Events Conditions
12:53 AM 41.0 °F 29.8 °F 35.1 °F 79% 28.66 in 10.0 mi SW 29.9 mph 36.8 mph 0.02 in Rain Light Rain
1:53 AM 39.9 °F 28.8 °F 35.1 °F 83% 28.72 in 10.0 mi SW 27.6 mph 35.7 mph 0.01 in Rain Light Rain
3:49 AM 39.2 °F 31.2 °F 35.6 °F 87% 28.87 in 10.0 mi WSW 13.8 mph - 0.01 in Rain Light Rain
3:53 AM 39.0 °F 29.9 °F 35.1 °F 86% 28.88 in 10.0 mi WSW 17.3 mph - 0.01 in Rain Light Rain
4:36 AM 39.2 °F 30.2 °F 35.6 °F 87% 28.92 in 10.0 mi SW 17.3 mph - 0.02 in Rain Light Rain
4:53 AM 39.0 °F 30.6 °F 35.1 °F 86% 28.94 in 10.0 mi WSW 15.0 mph - 0.03 in Rain Light Rain
5:19 AM 39.2 °F 29.0 °F 35.6 °F 87% 28.96 in 10.0 mi SW 21.9 mph - 0.01 in Rain Light Rain
5:53 AM 37.0 °F 25.9 °F 34.0 °F 89% 29.01 in 6.0 mi WSW 23.0 mph 32.2 mph 0.05 in Rain Light Rain
6:53 AM 36.0 °F 24.4 °F 32.0 °F 86% 29.06 in 10.0 mi WSW 23.0 mph 29.9 mph 0.04 in Rain Light Rain
7:53 AM 35.1 °F 23.8 °F 32.0 °F 89% 29.10 in 7.0 mi SW 20.7 mph 29.9 mph 0.02 in Snow Light Snow
8:49 AM 35.6 °F 25.5 °F 32.0 °F 87% 29.15 in 10.0 mi SW 17.3 mph 25.3 mph 0.01 in Rain Light Rain
8:53 AM 35.1 °F 23.8 °F 32.0 °F 89% 29.16 in 10.0 mi SW 20.7 mph 27.6 mph 0.01 in Rain Light Rain
9:17 AM 35.6 °F 24.0 °F 30.2 °F 81% 29.16 in 10.0 mi SW 23.0 mph - 0.00 in Rain Light Rain
9:53 AM 34.0 °F 22.7 °F 30.9 °F 89% 29.20 in 4.0 mi SW 19.6 mph - 0.01 in Rain Light Rain
10:47 AM 33.8 °F 22.5 °F 30.2 °F 87% 29.25 in 1.8 mi SW 19.6 mph 27.6 mph 0.01 in Snow Light Snow
10:48 AM 34.0 °F 22.4 °F 30.9 °F 89% 29.26 in 1.8 mi SW 20.7 mph 27.6 mph 0.01 in Snow Light Snow
11:01 AM 33.8 °F 22.5 °F 30.2 °F 87% 29.26 in 3.0 mi SW 19.6 mph - 0.00 in Snow Light Snow
11:30 AM 35.6 °F 24.8 °F 30.2 °F 81% 29.29 in 9.0 mi SW 19.6 mph - 0.00 in   Overcast
11:53 AM 35.1 °F 24.5 °F 30.0 °F 82% 29.32 in 10.0 mi SW 18.4 mph 27.6 mph 0.00 in   Overcast
12:53 PM 35.1 °F 22.2 °F 30.0 °F 82% 29.35 in 10.0 mi SW 27.6 mph 33.4 mph N/A   Mostly Cloudy
1:53 PM 36.0 °F 26.3 °F 28.9 °F 76% 29.39 in 10.0 mi WSW 16.1 mph 19.6 mph N/A   Overcast
2:53 PM 36.0 °F 27.5 °F 28.9 °F 76% 29.42 in 10.0 mi WSW 12.7 mph - 0.00 in Rain Light Rain
3:06 PM 33.8 °F 28.6 °F 28.4 °F 81% 29.42 in 6.0 mi WSW 5.8 mph - 0.01 in Rain Light Rain
3:30 PM 35.6 °F 26.6 °F 30.2 °F 81% 29.42 in 8.0 mi SW 13.8 mph - 0.01 in Snow Light Snow
3:53 PM 35.1 °F 25.2 °F 28.9 °F 78% 29.42 in 10.0 mi WSW 16.1 mph - 0.01 in   Overcast
4:53 PM 35.1 °F 24.1 °F 28.0 °F 76% 29.45 in 10.0 mi WSW 19.6 mph - N/A   Overcast
5:53 PM 34.0 °F 23.4 °F 28.0 °F 79% 29.48 in 10.0 mi WSW 17.3 mph - N/A   Overcast
6:53 PM 33.1 °F 23.4 °F 28.0 °F 82% 29.49 in 10.0 mi WSW 13.8 mph 24.2 mph N/A   Partly Cloudy
7:53 PM 34.0 °F 23.4 °F 28.0 °F 79% 29.52 in 10.0 mi SW 17.3 mph - N/A   Partly Cloudy
8:53 PM 34.0 °F 22.4 °F 28.0 °F 79% 29.54 in 10.0 mi SW 20.7 mph - N/A   Mostly Cloudy
9:53 PM 34.0 °F 23.4 °F 28.0 °F 79% 29.55 in 10.0 mi WSW 17.3 mph - N/A   Overcast
10:24 PM 33.8 °F 22.2 °F 28.4 °F 81% 29.55 in 4.0 mi WSW 20.7 mph 31.1 mph 0.00 in Snow Light Snow
10:32 PM 33.8 °F 22.2 °F 28.4 °F 81% 29.55 in 9.0 mi WSW 20.7 mph 31.1 mph 0.00 in   Overcast
10:53 PM 33.1 °F 20.9 °F 28.9 °F 85% 29.56 in 7.0 mi WSW 21.9 mph 31.1 mph 0.00 in Snow Light Snow
11:53 PM 33.1 °F 21.9 °F 28.9 °F 85% 29.58 in 5.0 mi WSW 18.4 mph 26.5 mph 0.00 in Snow Light Snow